Welcome to the New NWS' Forecast!
Most changes are behind the scenes, but click here for differences you might notice.

Regional Weather Roundup (RWR)

Issued by Mobile/Pensacola (MOB)

                            
953 
ASUS44 KMOB 281213
RWRMOB
REGIONAL WEATHER ROUNDUP
NATIONAL WEATHER SERVICE MOBILE AL
700 AM CDT FRI JUL 28 2017

NOTE: "FAIR" INDICATES FEW OR NO CLOUDS BELOW 12,000 FEET WITH NO
      SIGNIFICANT WEATHER AND/OR OBSTRUCTIONS TO VISIBILITY.

  * THESE STATIONS ARE PART OF THE UNIVERSITY OF SOUTH ALABAMA 
    MESONET AND ARE NOT UNDER NWS OR FAA QUALITY CONTROL. 

ALZ061>064-281300-
COASTAL ALABAMA
  
CITY           SKY/WX    TMP DP  RH WIND       PRES   REMARKS
MOBILE REG APT MOCLDY    76  73  91 CALM      29.97R                  
6HR MIN TEMP:  74; 6HR MAX TEMP:  76;                                

BROOKLEY FIELD MOCLDY    77  76  96 W3        29.97R                  
6HR MIN TEMP:  76; 6HR MAX TEMP:  78;                                

USA CAMPUS*      N/A     70  68  94 CALM      29.97R                  
DOG RIVER*     NOT AVBL                                               

  
CITY           SKY/WX    TMP DP  RH WIND       PRES   REMARKS
GULF SHORES    CLEAR     76  76 100 MISG      29.95R                  

$$

ALZ051>060-281300-
INTERIOR SOUTHWEST AND SOUTH CENTRAL ALABAMA
  
CITY           SKY/WX    TMP DP  RH WIND       PRES   REMARKS
GREENVILLE     MOSUNNY   77  71  82 W3        29.95R                  
6HR MIN TEMP:  73; 6HR MAX TEMP:  77;                                

EVERGREEN      MOSUNNY   73  71  93 CALM      29.96R FOG              
6HR MIN TEMP:  73; 6HR MAX TEMP:  77;                                

ATMORE*        NOT AVBL                                               
ANDALUSIA/OPP  MOSUNNY   78  73  84 CALM      29.95R                  
6HR MIN TEMP:  76; 6HR MAX TEMP:  79;                                

ANDALUSIA*       N/A     75  72  88 W2        29.96R                  
FLORALA APT    CLOUDY    76  71  85 SW3       29.97R                  
6HR MIN TEMP:  74; 6HR MAX TEMP:  77;                                

FLORALA*         N/A     75  73  94 CALM      30.63R                  

$$

FLZ001>006-281300-
WESTERN FLORIDA PANHANDLE
  
CITY           SKY/WX    TMP DP  RH WIND       PRES   REMARKS
PENSACOLA      MOSUNNY   80  75  84 CALM      29.95R                  
6HR MIN TEMP:  78; 6HR MAX TEMP:  80;                                

NAS PENSACOLA  PTSUNNY   78  77  96 CALM      29.95R                  
6HR MIN TEMP:  76; 6HR MAX TEMP:  78;                                

MILTON         PTSUNNY   75  74  96 CALM      29.96R                  
6HR MIN TEMP:  72; 6HR MAX TEMP:  75;                                

WHTNG S FIELD  PTSUNNY   78  75  90 CALM      29.96R                  
6HR MIN TEMP:  75; 6HR MAX TEMP:  78;                                


  
CITY           SKY/WX    TMP DP  RH WIND       PRES   REMARKS
JAY*             N/A     75  75 100 SW2       29.96R                  
DUKE FIELD     MOSUNNY   76  72  88 S5        29.95R                  
CRESTVIEW      MOSUNNY   75  72  90 CALM      29.97R                  
6HR MIN TEMP:  73; 6HR MAX TEMP:  76;                                

VALPARAISO     PTSUNNY   77  73  86 CALM      29.95R                  
DESTIN         MOSUNNY   83  75  77 CALM      29.94S                  
6HR MIN TEMP:  80; 6HR MAX TEMP:  83;                                


$$

MSZ076-079-281300-
INTERIOR SOUTHEAST MISSISSIPPI
  
CITY           SKY/WX    TMP DP  RH WIND       PRES   REMARKS
LEAKESVILLE*     N/A     73  73 100 CALM      29.97                   
AGRICOLA*        N/A     77  72  83 CALM      29.96                   

$$

MARINE OBSERVATIONS
  
STATION/POSITION TIME  TEMP    WIND        PRES    WAVE
                       AIR SEA DIR/SP/G            HT/PER
                 (UTC) (F)     (DEG/KT/KT) (MB)    (FT/S)
PASCAGOULA       1148   79     340/  2/  3 1014.4R
PETIT BOIS ISLND 1148   83     320/  7/  9 1015.2R
GRAND BAY        1045   78     310/  4     1015.0R
KATRINA CUT      1130   83     320/ 10     1014.6R
CEDAR POINT      1130   82     310/  8     1014.2R
E DAUPHIN ISLAND 1100   83     290/  7/  8 1013.6R
MIDDLE BAY LIGHT 1130   83     330/  8     1014.6R
USCG MOBILE BAY  1148   79 84  280/  2/  3 1015.0R
STATE DOCKS      1142   79 86              1014.2R
MEAHER PARK      1130   79        CALM     1013.9F
WEEKS BAY        1045   76                   N/A
FORT MORGAN      1148   83     330/ 11/ 12   N/A
12 S ORANGE BCH  1050   86 86  280/  6/  8 1013.4R   1
PENSACOLA BAY    1142   80 87              1014.2R
64 S DAUPHIN ISL 1150   86 87  280/ 10/ 12 1014.5R   1/ 2
67 S FORT MORGAN 1130   85     320/  2     1014.6R

$$

SELECTED LOCATIONS ACROSS THE REGION
  
CITY           SKY/WX    TMP DP  RH WIND       PRES   REMARKS
NEW ORLEANS    MOCLDY    79  76  90 W6        29.98R                  
GULFPORT       PTCLDY    77  73  87 W3        29.95S                  
PASCAGOULA AP  MOCLDY    75  73  93 CALM      29.97R                  
PASCAGOULA*      N/A    N/A N/A N/A CALM        N/A                   
HATTIESBURG    CLEAR     73  72  96 CALM      29.98R                  
LAUREL         CLEAR     71  70  96 CALM      29.99R                  
MERIDIAN       CLEAR     74  72  93 S3        29.95S                  
JACKSON        CLOUDY    76  72  87 CALM      29.96R                  
MONTGOMERY     SUNNY     76  71  85 SW3       29.94R                  
TROY           MOSUNNY   73  73 100 S3        29.96R                  
ASHFORD*         N/A     75  72  88 W2        29.96R                  
DOTHAN         SUNNY     76  73  91 SW5       29.98R                  
PANAMA CITY    SUNNY     77  74  90 CALM      29.93S                  

$$